ギブス彗星

P/2017 W3 ( Gibbs )

English version
Home page
Updated on January 8, 2018

---------------------------------------------------------------------

・ プロフィール

発見日 2017年11月27日
発見光度 19.2等
発見者 Alex R. Gibbs (Catalina Sky Survey)

・ 写真集

・ 軌道要素

Epoch 2018 Feb. 11.0 TT = JDT 2458160.5
T 2018 Feb. 11.58089 TT                                 MPCW
q   3.8619961            (2000.0)            P               Q
n   0.04190669     Peri.  324.04709     -0.98117440     -0.10578644
a   8.2088147      Node   211.08860     +0.12771141     -0.98299492
e   0.5295306      Incl.   18.23451     -0.14486751     -0.15010070
P  23.52
From 53 observations 2017 Nov. 27-Dec. 19, mean residual 0".5.

・ 光度変化

        m1 = 10.0 + 5 logΔ + 10.0 log r

---------------------------------------------------------------------

軌道要素はM.P.E.C. 2017-Y44に掲載されたものです。
光度グラフはComet for Windowsで作成したものです。

---------------------------------------------------------------------

Copyright(C) Seiichi Yoshida (comet@aerith.net). All rights reserved.